Weather History for Wright-Patt AFB, OH

Change the Weather History Date:

Saturday, September 28, 2013

  Actual Average Record
Temperature  
Mean Temperature 64 °F -  
Max Temperature 79 °F 70 °F 89 °F (1999)
Min Temperature 50 °F 46 °F 42 °F (2001)
Degree Days  
Heating Degree Days 1    
Growing Degree Days 14 (Base 50)    
Moisture  
Dew Point 52 °F    
Average Humidity 69    
Maximum Humidity 95    
Minimum Humidity 37    
Precipitation  
Precipitation 0.00 in - - ()
Sea Level Pressure  
Sea Level Pressure 30.15 in    
Wind  
Wind Speed 2 mph (SSE)    
Max Wind Speed 10 mph    
Max Gust Speed -    
Visibility 9 miles    
Events Fog    
Averages and records for this station are not official NWS values.
T = Trace of Precipitation, MM = Missing Value Source: NWS Daily Summary

Daily Weather History Graph

Daily Weather History Graph

Search for Another Location

Airport:

Trip Planner

Search our weather history database for the weather conditions in past years. The results will help you decide how hot, cold, wet, or windy it might be!

Date:

Astronomy

Sep. 28, 2013 Rise Set
Actual Time 7:29 AM EDT 7:23 PM EDT
Civil Twilight 7:02 AM EDT 7:49 PM EDT
Nautical Twilight 6:31 AM EDT 8:21 PM EDT
Astronomical Twilight 5:59 AM EDT 8:52 PM EDT
Moon 1:16 AM EDT (9/28) 3:40 PM EDT (9/28)
Length of Visible Light 12h 47m
Length of Day
11h 53m
Last Quarter, 36% of the Moon is Illuminated
Sep 28
Last Quarter
Oct 4
New
Oct 11
First Quarter
Oct 18
Full
Oct 26
Last Quarter

Hourly Weather History & Observations

Time (EDT) Temp. Dew Point Humidity Pressure Visibility Wind Dir Wind Speed Gust Speed Precip Events Conditions
12:58 AM 54.5 °F 50.9 °F 88% 30.15 in 10.0 mi Calm Calm - N/A   Clear
1:08 AM 57.2 °F 53.6 °F 88% 30.15 in 4.0 mi Calm Calm - N/A   Haze
1:58 AM 55.6 °F 52.0 °F 88% 30.15 in 10.0 mi North 2.3 mph - N/A   Clear
2:58 AM 53.8 °F 50.2 °F 88% 30.15 in 10.0 mi Calm Calm - N/A   Clear
3:18 AM 53.6 °F 50.0 °F 88% 30.15 in 7.0 mi Calm Calm - N/A   Clear
3:38 AM 53.6 °F 50.0 °F 88% 30.15 in 3.0 mi Calm Calm - N/A   Clear
3:48 AM 53.6 °F 51.8 °F 94% 30.15 in 10.0 mi Calm Calm - N/A   Clear
3:58 AM 53.1 °F 49.6 °F 88% 30.15 in 10.0 mi Calm Calm - N/A   Clear
4:58 AM 50.9 °F 49.6 °F 95% 30.17 in 10.0 mi Calm Calm - N/A   Clear
5:58 AM 50.0 °F 48.7 °F 95% 30.16 in 10.0 mi Calm Calm - N/A   Clear
6:56 AM 50.0 °F 48.2 °F 94% 30.17 in 3.0 mi Calm Calm - N/A   Clear
6:58 AM 50.0 °F 48.6 °F 95% 30.18 in 2.0 mi Calm Calm - N/A   Clear
7:58 AM 50.0 °F 48.2 °F 94% 30.21 in 10.0 mi Calm Calm - N/A Fog Shallow Fog
8:58 AM 56.1 °F 51.4 °F 84% 30.21 in 10.0 mi NNE 1.2 mph - N/A   Clear
9:58 AM 62.1 °F 53.6 °F 74% 30.21 in 10.0 mi ESE 1.2 mph - N/A   Clear
10:58 AM 67.6 °F 55.0 °F 64% 30.22 in 10.0 mi Variable 2.3 mph - N/A   Clear
11:58 AM 73.0 °F 55.4 °F 54% 30.20 in 10.0 mi WSW 5.8 mph - N/A   Clear
12:32 PM 75.2 °F 55.4 °F 50% 30.19 in 10.0 mi Variable 5.8 mph - N/A   Light Drizzle
12:35 PM 75.2 °F 55.4 °F 50% 30.19 in 10.0 mi Variable 2.3 mph - N/A   Clear
12:58 PM 75.9 °F 52.5 °F 44% 30.18 in 10.0 mi Calm Calm - 0.00 in   Clear
1:28 PM 77.0 °F 51.8 °F 41% 30.17 in 10.0 mi SSW 5.8 mph - N/A   Light Drizzle
1:36 PM 77.0 °F 53.6 °F 44% 30.16 in 10.0 mi SSW 4.6 mph - N/A   Scattered Clouds
1:58 PM 77.4 °F 53.8 °F 44% 30.15 in 10.0 mi SE 5.8 mph - N/A   Mostly Cloudy
2:58 PM 78.4 °F 51.6 °F 39% 30.12 in 10.0 mi SE 10.4 mph - N/A   Mostly Cloudy
3:58 PM 78.6 °F 50.2 °F 37% 30.11 in 10.0 mi SSW 4.6 mph - N/A   Mostly Cloudy
4:58 PM 77.7 °F 51.8 °F 40% 30.10 in 10.0 mi SW 8.1 mph - N/A   Mostly Cloudy
5:58 PM 76.5 °F 51.4 °F 42% 30.09 in 10.0 mi South 6.9 mph - N/A   Mostly Cloudy
6:58 PM 74.8 °F 52.2 °F 45% 30.09 in 10.0 mi South 5.8 mph - N/A   Mostly Cloudy
7:58 PM 68.4 °F 53.8 °F 60% 30.10 in 10.0 mi SE 1.2 mph - N/A   Scattered Clouds
8:58 PM 65.5 °F 54.0 °F 66% 30.09 in 10.0 mi SE 5.8 mph - N/A   Clear
9:58 PM 66.6 °F 54.0 °F 64% 30.08 in 10.0 mi SE 8.1 mph - N/A   Clear
10:58 PM 64.6 °F 54.0 °F 68% 30.08 in 10.0 mi SSE 5.8 mph - N/A   Clear
11:58 PM 62.8 °F 53.2 °F 71% 30.07 in 10.0 mi SE 1.2 mph - N/A   Clear